Time,TemperatureF,DewpointF,PressureIn,WindDirection,WindDirectionDegrees,WindSpeedMPH,WindSpeedGustMPH,Humidity,HourlyPrecipIn,Conditions,Clouds,dailyrainin,SolarRadiationWatts/m^2,SoftwareType,DateUTC
2014-12-27 00:22:00,39.0,37.0,-100.00,NNE,14,1.0,2.0,91,-99.99,,,-99.99,0.000000,,2014-12-27 05:22:00,
2014-12-27 00:52:00,39.0,37.0,-100.00,SE,124,3.0,3.0,91,-99.99,,,-99.99,0.000000,,2014-12-27 05:52:00,
2014-12-27 01:22:00,40.0,37.0,-100.00,NW,313,2.0,3.0,92,-99.99,,,-99.99,0.200000,,2014-12-27 06:22:00,
2014-12-27 01:52:00,40.0,37.0,-100.00,North,-999,0.0,0.0,89,-99.99,,,-99.99,0.000000,,2014-12-27 06:52:00,
2014-12-27 02:22:00,40.0,37.0,-100.00,ENE,68,0.0,1.0,90,-99.99,,,-99.99,0.000000,,2014-12-27 07:22:00,
2014-12-27 02:52:00,41.0,38.0,-100.00,ESE,108,2.0,2.0,89,-99.99,,,-99.99,0.000000,,2014-12-27 07:52:00,
2014-12-27 03:22:00,41.0,38.0,-100.00,North,-999,0.0,1.0,92,-99.99,,,-99.99,0.000000,,2014-12-27 08:22:00,
2014-12-27 03:52:00,42.0,39.0,-100.00,NNW,330,3.0,4.0,89,-99.99,,,-99.99,0.200000,,2014-12-27 08:52:00,
2014-12-27 04:22:00,42.0,39.0,-100.00,SE,126,2.0,3.0,88,-99.99,,,-99.99,0.000000,,2014-12-27 09:22:00,
2014-12-27 04:53:00,41.0,38.0,-100.00,SE,126,1.0,2.0,88,-99.99,,,-99.99,0.000000,,2014-12-27 09:53:00,
2014-12-27 05:23:00,41.0,38.0,-100.00,SE,140,1.0,2.0,91,-99.99,,,-99.99,0.000000,,2014-12-27 10:23:00,
2014-12-27 05:53:00,42.0,39.0,-100.00,SE,132,1.0,2.0,90,-99.99,,,-99.99,0.000000,,2014-12-27 10:53:00,
2014-12-27 06:22:00,42.0,39.0,-100.00,SE,139,2.0,3.0,90,-99.99,,,-99.99,0.000000,,2014-12-27 11:22:00,
2014-12-27 06:52:00,42.0,39.0,-100.00,East,90,1.0,2.0,90,-99.99,,,-99.99,0.000000,,2014-12-27 11:52:00,
2014-12-27 07:22:00,42.0,38.0,-100.00,NNE,23,2.0,3.0,87,-99.99,,,-99.99,0.000000,,2014-12-27 12:22:00,
2014-12-27 07:52:00,42.0,39.0,-100.00,NNW,337,2.0,3.0,87,-99.99,,,-99.99,0.300000,,2014-12-27 12:52:00,
2014-12-27 08:22:00,43.0,37.0,-100.00,North,359,1.0,2.0,80,-99.99,,,-99.99,6.400000,,2014-12-27 13:22:00,
2014-12-27 08:52:00,43.0,39.0,-100.00,ESE,112,1.0,1.0,85,-99.99,,,-99.99,38.000000,,2014-12-27 13:52:00,
2014-12-27 09:22:00,45.0,38.0,-100.00,SW,222,0.0,1.0,76,-99.99,,,-99.99,80.500000,,2014-12-27 14:22:00,
2014-12-27 09:52:00,47.0,37.0,-100.00,East,86,2.0,3.0,69,-99.99,,,-99.99,228.699997,,2014-12-27 14:52:00,
2014-12-27 10:22:00,50.0,38.0,-100.00,SE,135,3.0,4.0,64,-99.99,,,-99.99,149.199997,,2014-12-27 15:22:00,
2014-12-27 10:54:00,51.0,38.0,-100.00,SSE,163,2.0,4.0,62,-99.99,,,-99.99,148.600006,,2014-12-27 15:54:00,
2014-12-27 11:24:00,55.0,36.0,-100.00,South,187,5.0,7.0,48,-99.99,,,-99.99,212.500000,,2014-12-27 16:24:00,
2014-12-27 11:54:00,55.0,35.0,-100.00,South,186,10.0,12.0,47,-99.99,,,-99.99,196.000000,,2014-12-27 16:54:00,
2014-12-27 12:22:00,55.0,36.0,-100.00,SSW,207,14.0,19.0,48,-99.99,,,-99.99,123.699997,,2014-12-27 17:22:00,
2014-12-27 12:52:00,55.0,36.0,-100.00,SSW,213,11.0,18.0,49,-99.99,,,-99.99,140.000000,,2014-12-27 17:52:00,
2014-12-27 13:23:00,55.0,36.0,-100.00,SW,218,15.0,19.0,48,-99.99,,,-99.99,151.399994,,2014-12-27 18:23:00,
2014-12-27 13:53:00,55.0,39.0,-100.00,SSW,208,10.0,15.0,54,-99.99,,,-99.99,116.800003,,2014-12-27 18:53:00,
2014-12-27 14:22:00,55.0,37.0,-100.00,SW,232,9.0,13.0,51,-99.99,,,-99.99,71.400002,,2014-12-27 19:22:00,
2014-12-27 14:52:00,54.0,42.0,-100.00,WSW,239,12.0,18.0,64,-99.99,,,-99.99,102.400002,,2014-12-27 19:52:00,
2014-12-27 15:22:00,54.0,41.0,-100.00,SSW,212,7.0,9.0,63,-99.99,,,-99.99,60.200001,,2014-12-27 20:22:00,